This is the latest recevied weather packets stored in our database for station/object SP3OTE-2. If no packets are shown the sender has not sent any weather packets the latest 10 day(s).
| Time | Temp. | Humidity | Pressure | Rain* | Wind** | Luminosity | Snow |
|---|---|---|---|---|---|---|---|
| 1777922788 | 18.33° C | 53% | 1011.8 hPa | - | - | - | - |
| 1777922188 | 18.89° C | 51% | 1011.8 hPa | - | - | - | - |
| 1777921588 | 19.44° C | 49% | 1011.7 hPa | - | - | - | - |
| 1777920987 | 20° C | 47% | 1011.6 hPa | - | - | - | - |
| 1777920388 | 21.11° C | 45% | 1011.5 hPa | - | - | - | - |
| 1777919787 | 21.11° C | 45% | 1011.6 hPa | - | - | - | - |
| 1777919187 | 21.67° C | 44% | 1011.4 hPa | - | - | - | - |
| 1777918586 | 21.67° C | 44% | 1011.1 hPa | - | - | - | - |
| 1777917986 | 22.78° C | 42% | 1011.1 hPa | - | - | - | - |
| 1777917386 | 23.89° C | 40% | 1011.1 hPa | - | - | - | - |
| 1777916786 | 25° C | 37% | 1011 hPa | - | - | - | - |
| 1777916185 | 26.67° C | 34% | 1011 hPa | - | - | - | - |
| 1777915585 | 27.22° C | 33% | 1011 hPa | - | - | - | - |
| 1777914985 | 27.78° C | 33% | 1010.8 hPa | - | - | - | - |
| 1777914385 | 28.89° C | 31% | 1010.9 hPa | - | - | - | - |
| 1777913784 | 28.89° C | 31% | 1010.9 hPa | - | - | - | - |
| 1777913184 | 28.89° C | 30% | 1010.9 hPa | - | - | - | - |
| 1777912584 | 30.56° C | 29% | 1010.9 hPa | - | - | - | - |
| 1777911984 | 31.11° C | 29% | 1010.8 hPa | - | - | - | - |
| 1777911383 | 31.67° C | 28% | 1010.9 hPa | - | - | - | - |
| 1777910783 | 32.78° C | 27% | 1010.8 hPa | - | - | - | - |
| 1777910183 | 34.44° C | 27% | 1011 hPa | - | - | - | - |
| 1777909582 | 33.89° C | 26% | 1010.9 hPa | - | - | - | - |
| 1777908982 | 33.33° C | 25% | 1011.1 hPa | - | - | - | - |
| 1777908382 | 33.89° C | 26% | 1011.1 hPa | - | - | - | - |
* Rain since midnight (hover to see other rain measurements)
** Current wind speed in m/s (hover to see current wind gust speed)